Altoona, PA

3:38 AM EDT on August 19, 2017 (GMT -0400)
Altoona-Blair County

Weather History for KAOO - March, 2014

Change the Weather History Date:

Thursday, March 27, 2014

  Actual Average Record
Temperature  
Mean Temperature 31 °F 42 °F  
Max Temperature 46 °F 51 °F 81 °F (1998)
Min Temperature 16 °F 32 °F 14 °F (1955)
Degree Days  
Heating Degree Days 34 24  
Month to date heating degree days 900 769  
Since 1 July heating degree days 5644 5324  
Cooling Degree Days 0 0  
Month to date cooling degree days 0 0  
Year to date cooling degree days 0 0  
Moisture  
Dew Point 14 °F    
Average Humidity 51    
Maximum Humidity 74    
Minimum Humidity 28    
Precipitation  
Precipitation 0.00 in 0.11 in 1.22 in (1983)
Month to date precipitation 0.67 2.63  
Year to date precipitation 4.03 6.84  
Sea Level Pressure  
Sea Level Pressure 30.26 in    
Wind  
Wind Speed 8 mph (South)    
Max Wind Speed 18 mph    
Max Gust Speed 26 mph    
Visibility 10 miles    
Events      
T = Trace of Precipitation, MM = Missing Value Source: NWS Daily Summary

Daily Weather History Graph

Daily Weather History Graph

Search for Another Location

Airport or City:

Trip Planner

Search our weather history database for the weather conditions in past years. The results will help you decide how hot, cold, wet, or windy it might be!

Date:

Astronomy

Mar. 27, 2014 Rise Set
Actual Time 7:05 AM EDT 7:32 PM EDT
Civil Twilight 6:37 AM EDT 7:59 PM EDT
Nautical Twilight 6:05 AM EDT 8:32 PM EDT
Astronomical Twilight 5:33 AM EDT 9:05 PM EDT
Moon 4:55 AM EDT (3/27) 4:17 PM EDT (3/27)
Length of Visible Light 13h 21m
Length of Day
12h 27m
Waning Crescent, 13% of the Moon is Illuminated
Mar 27
Waning Crescent
Mar 30
New
Apr 7
First Quarter
Apr 15
Full
Apr 22
Last Quarter

Hourly Weather History & Observations

Time (EDT) Temp. Windchill Dew Point Humidity Pressure Visibility Wind Dir Wind Speed Gust Speed Precip Events Conditions
12:53 AM 19.0 °F 12.3 °F 8.1 °F 62% 30.33 in 10.0 mi NW 4.6 mph - N/A   Clear
1:53 AM 18.0 °F 12.7 °F 9.0 °F 68% 30.35 in 10.0 mi SE 3.5 mph - N/A   Clear
2:53 AM 18.0 °F 11.1 °F 10.0 °F 71% 30.35 in 10.0 mi South 4.6 mph - N/A   Clear
3:53 AM 17.1 °F - 10.0 °F 74% 30.34 in 10.0 mi Calm Calm - N/A   Clear
4:53 AM 16.0 °F 7.4 °F 9.0 °F 74% 30.36 in 10.0 mi South 5.8 mph - N/A   Clear
5:53 AM 17.1 °F - 10.0 °F 74% 30.34 in 10.0 mi Calm Calm - N/A   Clear
6:53 AM 18.0 °F - 10.0 °F 71% 30.34 in 10.0 mi Calm Calm - N/A   Clear
7:53 AM 21.0 °F - 10.9 °F 65% 30.37 in 10.0 mi Calm Calm - N/A   Clear
8:53 AM 26.1 °F 19.4 °F 12.9 °F 58% 30.35 in 10.0 mi South 5.8 mph - N/A   Clear
9:53 AM 28.0 °F 20.8 °F 12.9 °F 53% 30.35 in 10.0 mi SW 6.9 mph - N/A   Clear
10:53 AM 33.1 °F 24.4 °F 10.9 °F 40% 30.35 in 10.0 mi SSW 11.5 mph - N/A   Clear
11:53 AM 39.0 °F 31.4 °F 12.0 °F 33% 30.32 in 10.0 mi South 12.7 mph - N/A   Clear
12:53 PM 41.0 °F 33.9 °F 10.9 °F 29% 30.29 in 10.0 mi SSW 12.7 mph 21.9 mph N/A   Clear
1:53 PM 41.0 °F 33.5 °F 12.0 °F 31% 30.26 in 10.0 mi SSE 13.8 mph - N/A   Clear
2:53 PM 41.0 °F 33.1 °F 12.9 °F 32% 30.23 in 10.0 mi South 15.0 mph - N/A   Mostly Cloudy
3:53 PM 41.0 °F 34.3 °F 15.1 °F 35% 30.21 in 10.0 mi SSE 11.5 mph - N/A   Overcast
4:53 PM 41.0 °F 33.9 °F 16.0 °F 36% 30.20 in 10.0 mi SSE 12.7 mph - N/A   Overcast
5:53 PM 43.0 °F 36.0 °F 18.0 °F 37% 30.19 in 10.0 mi SSE 13.8 mph 20.7 mph N/A   Mostly Cloudy
6:53 PM 42.1 °F 36.1 °F 19.0 °F 40% 30.18 in 10.0 mi SSE 10.4 mph - N/A   Overcast
7:53 PM 42.1 °F 35.2 °F 19.9 °F 41% 30.15 in 10.0 mi SSE 12.7 mph 19.6 mph N/A   Overcast
8:53 PM 41.0 °F 34.7 °F 19.9 °F 43% 30.14 in 10.0 mi South 10.4 mph 18.4 mph N/A   Mostly Cloudy
9:53 PM 42.1 °F 37.1 °F 19.9 °F 41% 30.12 in 10.0 mi South 8.1 mph - N/A   Overcast
10:53 PM 42.1 °F - 19.9 °F 41% 30.10 in 10.0 mi Calm Calm - N/A   Mostly Cloudy
11:53 PM 45.0 °F 37.6 °F 19.9 °F 37% 30.05 in 10.0 mi SSW 17.3 mph 26.5 mph N/A   Scattered Clouds